Theta_e
312 311 311 310 311 311 310 309 308 308 308 309 309 306 305 303 301 303 305 306 306 306 306 306 306 307 306 307 307 307 308 308 312 310 309 309 308 308 308 309 309 309 309
312 311 311 311 311 311 309 308 308 308 310 309 309 308 305 301 304 306 305 307 307 307 306 306 306 306 306 307 307 307 308 308 309 310 309 307 307 307 307 307 307 307 307
312 311 311 311 310 311 310 309 309 309 309 309 308 307 302 300 301 304 306 307 307 306 306 306 307 307 307 306 307 307 308 308 309 310 308 306 306 306 306 306 306 306 306
312 312 311 310 309 310 310 309 309 310 309 308 308 307 304 301 300 303 306 307 308 306 306 306 306 307 307 307 306 307 308 310 310 309 307 306 306 305 306 305 305 304 304
312 311 311 309 310 310 309 310 310 311 310 309 308 308 307 303 301 302 307 306 307 306 304 306 305 304 306 307 306 307 308 309 308 308 307 306 306 306 305 305 306 306 305
311 311 310 310 311 310 310 310 312 311 311 309 309 309 308 305 303 302 305 306 307 305 303 303 304 303 305 307 305 305 307 307 308 307 307 307 307 306 305 306 305 305 306
311 311 311 311 310 310 310 310 311 311 311 310 310 309 308 305 303 303 305 305 306 306 305 303 301 303 304 306 307 306 305 306 307 307 307 307 306 306 305 305 306 307 306
311 312 312 311 311 310 310 311 312 312 311 311 310 309 307 306 303 303 305 304 305 307 305 305 302 302 303 305 307 307 306 306 305 306 306 307 307 306 306 306 308 308 306
311 312 312 311 310 310 311 313 312 311 311 309 309 308 308 305 303 303 303 303 304 306 306 305 304 302 302 303 302 302 304 306 307 307 306 307 307 307 307 308 308 308 306
312 312 311 311 310 310 311 311 311 311 310 309 308 306 306 304 303 303 302 302 302 304 305 304 304 304 304 302 302 303 304 305 306 306 307 308 308 306 306 307 309 309 309
313 312 311 311 311 310 310 310 310 310 310 308 309 307 306 304 303 302 302 302 302 302 302 303 304 304 303 304 303 305 306 306 306 306 306 308 307 308 308 308 309 309 309
313 311 311 311 311 310 309 310 310 309 309 308 306 307 306 304 301 300 300 300 302 301 302 304 304 305 303 303 304 305 306 306 306 306 305 306 305 305 306 306 306 307 308
311 311 311 310 310 310 311 310 308 308 307 306 305 304 304 302 302 300 299 299 300 301 302 304 303 304 304 302 303 304 305 305 305 306 306 305 304 304 305 305 305 305 304
310 310 311 310 310 309 309 309 309 309 308 305 305 304 303 303 301 300 300 300 301 302 303 303 303 303 303 302 302 302 303 304 304 304 305 305 306 306 304 305 305 306 306
311 310 310 310 310 309 309 309 309 308 309 307 306 305 303 302 300 300 300 301 301 301 302 302 302 302 301 303 302 303 303 302 303 304 304 304 305 305 306 305 305 306 305
310 310 310 311 308 309 309 309 309 309 308 307 306 305 303 302 301 300 300 301 301 301 301 301 301 301 301 302 302 302 301 302 303 302 303 304 304 304 304 305 306 305 305
310 311 311 311 310 310 309 308 307 307 308 307 306 305 304 301 302 301 301 301 301 301 301 301 301 301 301 301 301 302 302 301 302 303 302 302 303 304 303 304 304 306 305
311 312 308 308 309 309 308 308 307 308 307 307 307 306 305 303 302 302 302 302 302 301 301 301 301 301 301 301 300 299 300 301 301 301 302 302 303 303 304 305 305 305 305
311 310 310 309 309 308 308 308 308 307 307 307 307 306 305 304 303 302 302 301 301 301 299 299 300 300 300 300 300 298 298 298 300 300 301 302 303 302 302 302 303 304 304
311 311 308 308 310 309 309 308 308 308 307 307 307 305 304 304 302 302 301 300 300 299 299 299 299 298 299 299 299 299 298 296 297 298 299 299 300 300 301 301 300 301 303
311 311 310 309 309 310 310 309 309 308 307 307 305 303 302 301 301 301 300 299 298 298 298 298 298 297 298 298 298 298 298 296 295 295 296 297 297 298 299 299 300 299 302
311 311 311 310 310 310 310 309 309 308 307 302 302 301 301 300 300 299 299 299 298 298 298 298 298 298 298 298 298 298 297 295 293 291 290 293 295 296 296 297 298 298 299
312 312 311 311 310 310 310 310 309 308 306 302 301 301 300 300 299 299 299 298 297 297 297 297 298 298 298 298 298 296 293 292 291 289 289 291 293 293 294 295 297 298 298
309 310 310 310 310 311 310 308 307 305 303 302 302 301 300 299 299 299 298 297 297 297 297 297 297 297 296 296 294 293 293 291 290 289 288 290 292 293 293 294 296 297 298
308 307 307 307 309 311 308 305 305 304 303 302 301 300 300 299 298 298 297 297 296 297 296 297 297 296 295 294 293 292 291 290 289 288 288 288 290 292 293 294 297 297 298
308 310 310 309 308 307 305 305 304 303 302 302 301 300 299 299 298 297 297 297 297 297 296 296 295 293 293 292 291 290 289 288 289 288 289 289 290 292 294 295 296 297 298
Wind_Speed
14 11 8 5 2 2 0 3 5 7 9 9 10 11 14 20 19 17 12 13 15 17 15 13 13 14 18 17 14 12 9 8 4 1 2 7 9 11 14 17 20 24 23
15 10 7 4 3 2 1 3 5 7 8 8 9 11 13 19 19 17 14 13 16 16 14 13 12 14 18 19 17 15 12 7 4 2 2 5 9 11 12 15 18 20 22
15 10 6 5 4 4 1 2 5 6 9 7 8 9 14 18 18 17 14 13 14 14 13 12 10 13 18 20 20 19 15 6 5 5 5 6 6 8 11 14 15 17 18
14 11 8 6 6 4 2 3 5 6 9 7 6 6 10 17 19 17 14 14 12 12 12 10 11 12 15 17 19 21 16 3 5 11 9 5 4 7 9 10 15 16 17
16 12 9 9 7 5 5 5 6 5 6 6 6 7 7 14 17 17 14 12 11 11 12 10 11 12 12 11 15 17 17 9 9 9 5 3 3 1 2 3 7 8 11
15 12 11 11 8 7 6 6 6 5 5 6 5 6 6 10 16 16 12 11 9 11 12 11 11 13 14 11 12 14 13 11 7 6 2 1 1 2 4 2 3 2 1
13 13 11 10 9 9 8 7 4 6 6 7 4 6 5 7 14 16 10 13 8 8 11 14 12 13 14 12 10 9 13 10 7 4 1 1 2 3 3 2 3 3 1
14 14 12 12 11 9 7 4 5 8 9 7 5 5 4 7 12 13 10 11 12 4 9 12 13 12 15 12 11 9 11 9 9 4 2 1 1 3 4 2 5 3 2
17 16 14 13 10 6 5 3 5 7 8 5 3 3 3 5 8 11 12 12 11 9 8 10 13 11 11 11 10 8 7 9 6 5 3 0 1 1 2 4 5 3 3
19 15 11 10 7 5 2 2 4 5 6 3 3 3 3 3 4 9 12 10 11 11 8 10 11 12 11 10 10 10 9 9 8 5 3 2 3 3 3 5 5 5 5
14 14 13 11 6 3 2 3 3 5 4 3 4 6 5 5 5 6 10 10 9 8 12 12 8 10 12 12 8 9 9 7 3 2 2 3 6 2 0 1 2 2 4
12 16 12 7 5 3 4 4 3 3 3 2 2 3 4 2 5 7 8 9 7 10 12 11 7 6 9 12 8 7 6 5 3 3 1 1 1 1 2 2 2 3 1
16 12 8 5 4 4 3 3 2 2 2 5 6 4 1 1 10 10 11 11 9 9 10 8 8 5 5 11 11 7 5 6 5 4 3 3 2 3 3 3 2 2 1
14 10 6 4 3 5 5 6 6 5 3 1 1 2 4 6 10 11 11 13 12 10 9 9 7 8 6 8 11 11 9 7 5 5 4 4 1 2 4 4 3 5 5
11 6 6 5 5 5 7 8 9 9 6 6 5 1 3 5 7 9 10 13 12 13 8 8 8 10 11 8 9 9 11 11 7 6 6 5 3 1 1 1 3 2 2
10 8 5 4 5 7 9 9 9 9 10 10 7 3 1 2 3 5 9 9 8 10 9 10 10 10 11 11 11 9 9 13 11 9 7 6 4 3 2 2 1 2 2
9 6 5 5 7 8 8 5 2 4 7 12 10 7 5 1 1 4 9 9 7 7 9 10 12 12 10 9 9 9 8 10 13 10 9 8 7 5 4 4 3 3 2
8 5 4 2 1 5 3 3 4 8 9 4 8 11 9 6 3 5 8 11 9 8 7 8 10 10 12 10 8 10 9 10 10 15 12 11 9 7 6 6 6 4 5
9 6 3 2 6 5 3 3 8 8 6 6 5 8 10 8 7 6 7 6 5 6 8 8 8 9 9 7 8 8 9 11 11 9 13 9 7 8 8 10 10 8 9
10 7 3 3 1 5 7 8 9 9 6 6 4 5 4 7 3 3 0 3 6 7 8 10 9 9 9 8 9 8 8 13 11 10 8 9 9 9 9 11 13 12 11
11 10 7 6 6 6 7 10 10 9 6 3 7 7 8 6 4 1 1 4 7 9 10 10 11 10 8 9 8 5 7 11 10 11 12 11 11 10 9 10 13 14 11
10 8 9 8 7 9 10 12 12 10 6 13 13 11 6 4 2 1 2 5 10 10 11 11 10 12 10 10 4 5 7 10 14 17 16 12 12 11 12 12 12 12 12
8 9 9 11 11 11 14 13 9 3 6 19 13 8 3 2 2 3 5 8 10 12 12 13 12 12 7 5 3 5 9 14 17 16 15 13 12 12 11 12 11 13 14
8 10 11 12 14 12 12 4 8 13 17 15 9 4 3 2 2 3 6 10 9 11 12 11 10 2 4 3 4 9 14 17 17 16 13 13 12 11 11 11 10 13 13
7 8 13 15 12 14 5 15 17 15 14 12 10 8 4 1 1 4 9 11 10 9 10 11 6 3 3 6 10 15 19 19 17 15 13 12 11 11 11 10 12 15 14
7 13 6 2 5 12 15 17 15 15 14 10 8 5 3 1 3 6 7 9 12 9 6 3 1 3 6 10 16 19 19 18 16 13 13 12 10 8 6 11 13 15 16
Wind_Direction
174 171 174 158 127 164 312 44 50 38 27 22 12 10 2 1 5 6 10 6 10 3 3 2 1 355 357 355 351 340 326 312 278 86 56 43 57 66 66 71 71 66 52
172 172 171 182 177 198 289 27 17 12 9 15 12 8 5 4 11 19 20 13 2 3 1 355 359 354 1 3 358 350 333 307 273 149 77 58 74 74 69 71 70 73 70
168 160 173 196 210 218 302 2 358 356 359 7 12 19 12 7 9 13 21 16 10 9 3 359 359 357 355 0 2 355 345 303 241 168 128 117 79 77 75 69 64 69 68
166 167 184 208 222 228 276 307 338 339 355 9 11 15 11 10 9 7 16 20 12 14 14 7 11 0 354 355 1 4 5 68 145 145 129 111 84 79 76 72 68 65 64
166 171 189 212 229 244 272 285 308 304 348 1 2 359 353 5 3 2 8 15 15 10 7 13 6 4 6 2 4 8 17 55 108 119 107 118 116 77 65 93 86 64 58
173 184 204 226 240 248 273 292 298 301 326 344 347 345 342 356 4 2 5 12 19 10 13 9 3 7 14 25 24 22 26 33 68 105 101 95 64 109 144 162 59 358 48
177 191 212 228 248 257 273 299 294 328 323 338 333 324 320 348 359 1 7 16 15 12 12 13 13 14 16 22 23 19 34 37 41 21 31 73 172 151 146 162 8 354 105
184 197 212 230 243 259 272 272 318 337 340 338 330 326 319 344 356 8 18 9 10 21 14 14 10 11 16 20 25 35 34 31 33 25 19 24 245 177 173 290 339 2 138
193 205 213 221 227 225 297 271 324 335 341 339 320 299 292 316 353 2 10 13 19 22 13 10 11 10 11 15 15 15 14 25 26 17 21 14 128 213 260 319 327 202 236
207 206 203 208 223 197 250 320 323 326 328 321 291 245 252 294 358 2 360 4 16 24 21 17 20 17 12 1 1 360 358 3 5 20 348 355 268 238 257 300 314 245 247
220 198 180 182 206 226 269 296 317 325 298 308 268 255 275 328 349 4 13 13 5 14 5 2 6 19 16 8 6 6 355 353 27 7 54 61 59 169 18 312 337 2 245
190 173 174 185 207 227 276 296 307 334 339 334 358 245 279 337 6 3 3 8 7 346 353 356 355 357 19 15 17 7 5 16 38 94 109 275 323 334 4 347 348 309 324
164 169 170 201 232 248 269 292 301 329 26 99 110 85 150 316 357 2 3 3 358 357 6 23 11 5 11 16 20 13 359 22 23 41 29 350 312 312 293 272 284 331 351
168 161 188 233 235 253 253 252 260 276 272 210 23 11 20 2 2 3 9 11 14 18 28 36 21 24 360 6 16 23 17 12 2 351 340 342 292 269 237 246 270 296 293
171 185 199 223 246 268 283 280 270 278 257 268 259 289 3 12 8 7 4 5 14 14 21 29 21 20 20 360 350 2 17 11 2 5 347 336 351 326 171 260 249 274 252
184 199 215 258 281 285 282 279 266 279 264 270 258 239 230 12 22 1 9 13 7 9 18 12 3 8 9 356 352 342 359 6 357 354 342 337 320 315 316 355 329 315 325
199 207 216 244 283 261 246 241 288 319 269 264 258 233 228 198 352 336 347 4 2 1 19 18 15 4 353 1 2 2 343 359 350 336 346 336 327 301 288 291 310 324 291
200 216 224 209 245 215 210 344 301 299 313 296 265 230 227 225 237 293 325 350 5 20 22 6 360 10 8 352 360 15 1 351 354 358 344 346 340 326 328 316 313 289 290
206 199 192 294 201 250 283 320 317 317 351 306 250 205 227 235 248 267 302 322 7 14 4 2 356 349 344 342 343 355 12 3 358 344 336 341 351 339 352 357 341 326 314
210 214 227 203 336 250 300 306 307 308 349 330 213 171 211 193 225 249 328 9 3 3 350 350 345 343 351 346 336 315 352 3 350 351 358 350 354 348 339 341 348 336 319
210 216 225 244 265 286 280 288 310 314 322 322 140 143 141 140 115 81 350 355 358 358 341 342 342 338 342 332 329 291 332 349 353 342 327 317 325 334 324 321 321 327 329
223 236 245 262 270 284 299 307 301 289 341 148 135 129 122 114 133 37 350 1 348 341 340 337 337 340 338 329 298 282 322 333 331 327 322 311 301 305 311 317 320 323 322
229 245 255 268 273 288 300 305 323 329 128 151 142 130 106 115 77 26 24 357 354 348 345 338 340 335 339 326 295 339 338 334 329 323 315 308 303 303 302 310 312 323 321
258 256 268 275 280 289 304 306 135 136 136 145 154 136 133 114 44 19 2 349 348 340 342 344 346 333 333 315 332 337 337 334 327 319 311 304 300 300 299 298 305 319 311
275 295 284 284 287 292 184 146 148 151 152 157 157 162 153 200 352 11 347 340 337 343 352 347 353 329 322 328 333 334 332 332 330 322 309 303 297 296 298 288 297 310 309
305 310 312 244 177 157 155 157 163 168 168 172 164 146 171 288 346 354 343 335 328 326 314 329 329 329 337 341 340 338 339 339 336 333 328 318 307 303 304 301 297 306 315